471  
ASUS43 KFSD 242002  
RWRFSD  
 
WEATHER ROUNDUP FOR SE SOUTH DAKOTA/SW MINNESOTA/NW IOWA  
NATIONAL WEATHER SERVICE SIOUX FALLS SD  
200 PM CST WED FEB 24 2021  
 
NOTE: "FAIR" INDICATES FEW OR NO CLOUDS BELOW 12,000 FEET WITH NO  
SIGNIFICANT WEATHER AND OR S TO VISIBILITY
.  
 
 
SDZ038>040-050-052>070-242100-  
SOUTHEAST SOUTH DAKOTA  
 
CITY SKY/WX TMP DP RH WIND PRES REMARKS
 
BROOKINGS CLOUDY 33 26 75 W14 30.15S WCI 23  
CHAMBERLAIN CLOUDY 41 26 56 W8 30.16S  
HURON PTSUNNY 41 25 53 W10G23 30.15F  
MITCHELL MOSUNNY 43 25 49 W9 30.17F  
SIOUX FALLS PTSUNNY 38 29 70 NW14 30.17R  
WINNER CLOUDY 42 25 50 W16 30.14F  
YANKTON MOSUNNY 41 28 60 W13 30.19F  

 
 
MNZ071-072-080-081-089-090-097-098-242100-  
SOUTHWEST MINNESOTA  
 
CITY SKY/WX TMP DP RH WIND PRES REMARKS
 
FAIRMONT MOSUNNY 34 26 72 NW17G24 30.14R WCI 23  
LUVERNE N/A 36 27 69 NW9G16 30.16S  
MARSHALL SUNNY 35 24 64 N12 30.16R WCI 27  
PIPESTONE SUNNY 36 27 69 N14 30.13S  
REDWOOD FALLS MOSUNNY 34 25 69 NW13 30.15R WCI 25  
TRACY MOSUNNY 34 26 71 NW10 30.15S WCI 26  
WINDOM SUNNY 30 27 86 W15 30.13R WCI 19  
WORTHINGTON SUNNY 34 25 69 NW14 30.14S WCI 25  

 
 
IAZ001>003-012>014-020>022-031-032-NEZ013-014-SDZ071-242100-  
NORTHWEST IOWA  
 
CITY SKY/WX TMP DP RH WIND PRES REMARKS
 
CHEROKEE SUNNY 36 28 74 NW9 30.17S  
DENISON CLOUDY 34 30 86 NW10 30.20R WCI 26  
ESTHERVILLE SUNNY 31 27 85 NW10 30.14R WCI 22  
LE MARS MOSUNNY 39 28 65 NW8 30.17S  
MAURICE PTSUNNY 39 37 93 NW9 30.16S  
SHELDON MOSUNNY 37 30 75 NW10 30.14S  
SIOUX CITY SUNNY 41 29 62 NW9 30.19S  
SPENCER SUNNY 35 26 69 NW10 30.16R WCI 27  
STORM LAKE SUNNY 32 30 93 NW12 N/A WCI 23  

 
 
ABBREVIATIONS USED IN REMARKS  
TC - TEMPERATURE IN CELSIUS  
WCI - WIND CHILL INDEX  
HX - HEAT INDEX  
VSB - VISIBILITY  
 
 
 
CLICK HERE TO GO TO PREVIOUS BULLETINS.

The Nexlab SD Page
The Nexlab IA Page
The Nexlab MN Page
The Nexlab NE Page Main Text Page